Location: Peterborough
(44.3091°N, 78.3197°W)
Time: 04:51:00
(UTC-04:00)

Tiros 1 - Pass Details

Date: 02 April 2023
Orbit: 627 x 661 km, 48.4° (Epoch: 09 June)

Event Time Altitude Azimuth Distance (km) Brightness Sun altitude
Rises 02:39:30 0° 208° (SSW) 2,952 - -37.5°
Reaches altitude 10° 02:42:06 10° 196° (SSW) 2,051 - -37.3°
Maximum altitude 02:46:04 27° 139° (SE) 1,255 - -36.9°
Drops below altitude 10° 02:50:05 10° 82° (E) 2,073 - -36.6°
Exits shadow 02:50:16 - 81° (E) 2,136 10.2 -36.6°
Sets 02:52:43 0° 71° (ENE) 2,990 11.2 -36.3°
